Weather History for KSZL - March, 2013

Change the Weather History Date:

Monday, March 4, 2013

  Actual Average (KDMO) Record (KDMO)
Temperature  
Mean Temperature 40 °F 42 °F  
Max Temperature 48 °F 52 °F - ()
Min Temperature 32 °F 32 °F - ()
Degree Days  
Heating Degree Days 25 23  
Month to date heating degree days 95  
Since 1 July heating degree days 3712  
Cooling Degree Days 0 0  
Month to date cooling degree days 0  
Year to date cooling degree days 0  
Moisture  
Dew Point 30 °F    
Average Humidity 72    
Maximum Humidity 82    
Minimum Humidity 55    
Precipitation  
Precipitation 0.00 in 0.08 in - ()
Month to date precipitation 0.31  
Year to date precipitation 3.91  
Sea Level Pressure  
Sea Level Pressure 29.78 in    
Wind  
Wind Speed 10 mph (ENE)    
Max Wind Speed 15 mph    
Max Gust Speed -    
Visibility 10 miles    
Events      
T = Trace of Precipitation, MM = Missing Value Source: NWS Daily Summary

Daily Weather History Graph

Daily Weather History Graph

Search for Another Location

Airport or City:

Trip Planner

Search our weather history database for the weather conditions in past years. The results will help you decide how hot, cold, wet, or windy it might be!

Date:

Astronomy

Mar. 04, 2013 Rise Set
Actual Time 6:41 AM CST 6:10 PM CST
Civil Twilight 6:15 AM CST 6:37 PM CST
Nautical Twilight 5:44 AM CST 7:07 PM CST
Astronomical Twilight 5:13 AM CST 7:38 PM CST
Moon 12:49 AM CST 10:55 AM CST
Length of Visible Light 12h 21m
Length of Day
11h 28m
Waning Gibbous, 52% of the Moon is Illuminated
Mar 4
Waning Gibbous
Mar 4
Last Quarter
Mar 11
New
Mar 19
First Quarter
Mar 27
Full

Hourly Weather History & Observations

Time (CST) Temp. Windchill Dew Point Humidity Pressure Visibility Wind Dir Wind Speed Gust Speed Precip Events Conditions
12:58 AM 37.6 °F 29.6 °F 26.2 °F 64% 29.81 in 10.0 mi SE 12.7 mph - N/A   Clear
1:58 AM 37.4 °F 30.3 °F 27.5 °F 67% 29.81 in 10.0 mi SE 10.4 mph - N/A   Scattered Clouds
2:58 AM 36.9 °F 28.7 °F 28.0 °F 70% 29.76 in 10.0 mi ESE 12.7 mph - N/A   Clear
3:58 AM 35.4 °F 27.3 °F 28.2 °F 75% 29.76 in 10.0 mi ESE 11.5 mph - N/A   Partly Cloudy
4:58 AM 33.8 °F 27.0 °F 28.0 °F 79% 29.77 in 10.0 mi ESE 8.1 mph - N/A   Clear
5:58 AM 32.7 °F 24.5 °F 27.7 °F 82% 29.75 in 10.0 mi ESE 10.4 mph - N/A   Clear
6:58 AM 32.2 °F 23.8 °F 27.3 °F 82% 29.75 in 10.0 mi ESE 10.4 mph - N/A   Clear
7:58 AM 34.2 °F 25.2 °F 27.9 °F 78% 29.75 in 10.0 mi SE 12.7 mph - N/A   Partly Cloudy
8:58 AM 37.0 °F 29.8 °F 29.3 °F 74% 29.75 in 10.0 mi SE 10.4 mph - N/A   Scattered Clouds
9:58 AM 39.2 °F 33.6 °F 30.4 °F 71% 29.75 in 10.0 mi SE 8.1 mph - N/A   Mostly Cloudy
10:58 AM 41.7 °F 37.3 °F 31.1 °F 66% 29.73 in 10.0 mi SE 6.9 mph - N/A   Mostly Cloudy
11:58 AM 43.7 °F 40.3 °F 31.3 °F 62% 29.72 in 10.0 mi ESE 5.8 mph - N/A   Mostly Cloudy
12:58 PM 46.4 °F 44.3 °F 31.8 °F 57% 29.70 in 10.0 mi East 4.6 mph - N/A   Scattered Clouds
1:58 PM 48.0 °F - 32.5 °F 55% 29.69 in 10.0 mi East 3.5 mph - N/A   Partly Cloudy
2:58 PM 43.2 °F 38.4 °F 32.9 °F 67% 29.70 in 10.0 mi NNE 8.1 mph - N/A   Clear
3:58 PM 42.4 °F 37.5 °F 32.7 °F 68% 29.72 in 10.0 mi NE 8.1 mph - N/A   Mostly Cloudy
4:58 PM 43.3 °F 39.2 °F 32.7 °F 66% 29.75 in 10.0 mi North 6.9 mph - N/A   Clear
5:58 PM 42.3 °F 37.3 °F 32.7 °F 69% 29.78 in 10.0 mi North 8.1 mph - N/A   Overcast
6:58 PM 39.0 °F 31.8 °F 32.2 °F 76% 29.79 in 10.0 mi North 11.5 mph - N/A   Overcast
7:58 PM 37.6 °F 31.6 °F 31.6 °F 79% 29.82 in 10.0 mi North 8.1 mph - N/A   Overcast
8:58 PM 37.6 °F 30.5 °F 31.1 °F 77% 29.86 in 10.0 mi NNW 10.4 mph - N/A   Overcast
9:58 PM 37.4 °F 29.3 °F 31.1 °F 78% 29.88 in 10.0 mi NNW 12.7 mph - N/A   Overcast
10:35 PM 37.4 °F 28.5 °F 32.0 °F 81% 29.87 in 10.0 mi NNW 15.0 mph - N/A   Overcast
10:43 PM 37.4 °F 28.9 °F 32.0 °F 81% 29.88 in 10.0 mi NNW 13.8 mph - N/A   Overcast
10:58 PM 36.7 °F 28.0 °F 30.9 °F 80% 29.90 in 10.0 mi NNW 13.8 mph - N/A   Overcast
11:58 PM 36.3 °F 28.4 °F 30.7 °F 80% 29.94 in 10.0 mi NNW 11.5 mph - N/A   Overcast